KTGI

Details ICAO KTGI
Name TANGIER ISLAND
Region United States
Timezone America/New_York (UTC-4.0)
Plans Departing 4
Arriving 11
Stats Elevation 5 ft / 2 m (AMSL)
Location 37.825083° -75.997666°
Runways 1
Magnetic Variation 11.210° W
Sunrise 2018-05-26 09:47:49 UTC / 2018-05-26 05:47:49 Local
Sunset 2018-05-27 00:17:10 UTC / 2018-05-26 20:17:10 Local
Advertisement - Login to hide

Runways

ID Width Length Bearing (true) Bearing (mag) Surface Threshold Offset Overrun Length
02 75 ft / 23 m 3,005 ft / 916 m 7.35° 18.56° Asphalt 0 ft / 0 m 0 ft / 0 m
20 75 ft / 23 m 3,005 ft / 916 m 187.35° 198.56° Asphalt 98 ft / 30 m 0 ft / 0 m

Map

Weather


0- 5 10 15 20 25 30 35+ Temperature / ° C

Clouds and Precipitation
Forecast for 2018-05-26 06:00 UTC. Updated 3 hours ago

Ground ~20,000 ft ~40,000 ft Winds

METAR

KTGI 260814Z AUTO 20008KT 10SM CLR 23/23 A2992 RMK AO1

TAF

Not found

Frequencies

Unicom 122.80 MHz CTAF/UNICOM
Approach 120.05 MHz PATUXENT APP/DEP
Warning: Do not use this data for real-world aviation or navigation. No guarantee of current accuracy is given.